Regional Weather Roundup
Issued by NWS

Home | Current Version | Previous Version | Text Only | Print | Product List | Glossary On
Versions: 1 2 3 4 5 6 7 8 9 10 11 12 13 14 15 16 17 18 19 20 21 22 23 24 25 26 27 28 29 30 31 32 33 34 35 36 37 38 39 40 41 42 43 44 45 46 47 48 49 50
628
ASUS43 KMPX 070601
RWRMN
WEATHER ROUNDUP FOR MINNESOTA
NATIONAL WEATHER SERVICE TWIN CITIES/CHANHASSEN MN
1200 AM CST WED DEC 07 2016


NOTE: "FAIR" INDICATES FEW OR NO CLOUDS BELOW 12,000 FEET WITH NO
SIGNIFICANT WEATHER AND/OR OBSTRUCTIONS TO VISIBILITY. N/A MEANS
CURRENT SKY AND/OR WEATHER CONDITIONS ARE NOT AVAILABLE.

MNZ060>063-068>070-070700-
   Twin Cities Metro

CITY           SKY/WX    TMP DP  RH WIND       PRES   REMARKS
TWIN CITIES    CLOUDY    18   9  68 W20G29    29.86R WCI   2
6HR MIN TEMP:  18; 6HR MAX TEMP:  22; 6HR PCP: TRACE;

ST PAUL        CLOUDY    19  11  70 W15G26    29.87R WCI   5
CRYSTAL        FLURRIES  19   9  65 W18G30    29.84R WCI   4
BLAINE         FLURRIES  21  12  68 W14G25    29.82R WCI   8
LAKEVILLE      FLURRIES  16  10  79 W14G29    29.87S WCI   1
EDEN PRAIRIE   CLOUDY    18   9  68 W16G28    29.86R WCI   3
6HR MIN TEMP:  18; 6HR MAX TEMP:  22; 6HR PCP: TRACE;

SOUTH ST PAUL  CLOUDY    19  10  69 W17G33    29.86S WCI   4
LAKE ELMO      FLURRIES  19  14  79 SW20G26   29.85R WCI   4
$$
MNZ001>005-007-008-013>017-022>024-027-028-070700-
   Northwest Minnesota

CITY           SKY/WX    TMP DP  RH WIND       PRES   REMARKS
BEMIDJI        LGT SNOW  17  15  90 W25G31    29.58R VSB 1   WCI  -1
HALLOCK        LGT SNOW  21  19  93 NW32G40   29.63R VSB 3/4 WCI   2
ROSEAU         LGT SNOW  25  21  86 W12       29.52R WCI  14
WARROAD        LGT SNOW  25  19  80 W10       29.50R WCI  15
THIEF RVR FALL LGT SNOW  17  15  92 W25G31    29.64R FOG     WCI  -1
CROOKSTON      LGT SNOW  18  16  93 NW32G39   29.71R VSB 1   WCI  -3
FOSSTON        LGT SNOW  16  12  86 W22G30    29.65R VSB 1   WCI  -2
DETROIT LAKES  LGT SNOW  14  12  92 W23G35    29.74R WCI  -5
MOORHEAD       MIX PCPN  12   9  85 W30G40    29.82R WCI  -9
PARK RAPIDS    LGT SNOW  15   8  73 W24       29.66R WCI  -4
$$
MNZ006-009>011-018-025>026-070700-
   North Central Minnesota

CITY           SKY/WX    TMP DP  RH WIND       PRES   REMARKS
BAUDETTE       LGT SNOW  22  19  89 W5        29.47R FOG     WCI  16
FLAG ISLAND    CLOUDY    25  21  86 NW15      29.46R WCI  12
INTL FALLS     LGT SNOW  20  17  88 W3        29.47R FOG
6HR MIN TEMP:  19; 6HR MAX TEMP:  20; 6HR PCP:  0.01;

WASKISH        LGT SNOW  25  23  93 W14G24    29.50R WCI  13
BIG FORK       LGT SNOW  23  19  86 SW12      29.49R WCI  12
LONGVILLE      FLURRIES  18  12  79 W14G22    29.61R WCI   4
GRAND RAPIDS   LGT SNOW  19  16  86 W13G21    29.56R FOG     WCI   7
CRANE LAKE     LGT SNOW  19  18  93 SW5       29.49R WCI  13
ORR            FLURRIES  19  16  86 CALM      29.45R
COOK           FLURRIES  21  18  86 SW6       29.48R WCI  14
$$
MNZ012-019>021-037-070700-
   Northeast Minnesota

CITY           SKY/WX    TMP DP  RH WIND       PRES   REMARKS
DULUTH         LGT SNOW  20  15  81 W22G29    29.55R BLWGSNOWWCI   3
6HR MIN TEMP:  20; 6HR MAX TEMP:  20; 6HR PCP: TRACE;

ELY            LGT SNOW  21  18  86 W12G20    29.45R WCI   9
HIBBING        LGT SNOW  21  18  88 W8G20     29.51R FOG     WCI  11
EVELETH        LGT SNOW  23  19  87 SW12      29.51R WCI  11
DULUTH HARBOR  FLURRIES  25  18  74 SW22G30   29.61R WCI  10
TWO HARBORS    LGT SNOW  25  18  74 SW13G21   29.53R WCI  13
SILVER BAY     LGT SNOW  21  19  93 SW7       29.50R WCI  13
GRAND MARAIS     N/A     25  21  85 W6        29.51S WCI  18
G MARAIS ARPRT CLOUDY    18  12  79 SW7       29.43S WCI   8
$$
MNZ029>031-032-039>041-046>048-054>057-064-070700-
   West Central Minnesota

CITY           SKY/WX    TMP DP  RH WIND       PRES   REMARKS
FERGUS FALLS   LGT SNOW  12  10  92 W21G32    29.89R WCI  -6
WHEATON        CLOUDY    16  10  79 W21G31    29.92R WCI  -2
MORRIS         CLOUDY    14   9  79 W29G36    29.87R WCI  -7
ALEXANDRIA     LGT SNOW  13   9  84 W21G35    29.81R FOG     WCI  -5
ELBOW LAKE     LGT SNOW  12   9  89 NW22G32   29.86R WCI  -7
WADENA         LGT SNOW  12  10  92 W17G26    29.73R WCI  -5
GLENWOOD       LGT SNOW  12  10  92 W21G32    29.83R WCI  -6
APPLETON       MOCLDY    16   9  73 W24       29.92R WCI  -3
BENSON         FLURRIES  16   9  73 NW23G37   29.89R WCI  -2
ORTONVILLE     PTCLDY    12   5  73 W21G28    29.93R WCI  -6
MADISON        CLEAR     16   9  73 W23G29    29.96R WCI  -2
WILLMAR        CLOUDY    18  12  79 W24G32    29.89S WCI   0
$$
MNZ033>034-036-042>043-049>051-058-059-070700-
   Central Minnesota

CITY           SKY/WX    TMP DP  RH WIND       PRES   REMARKS
ST CLOUD       CLOUDY    17  11  77 W23G30    29.81R WCI  -1
6HR MIN TEMP:  17; 6HR MAX TEMP:  19; 6HR PCP: TRACE;

PAYNESVILLE    CLOUDY    15  10  80 W25G35    29.85R WCI  -4
AITKIN         MIX PCPN  19  10  68 SW13G26   29.64R WCI   7
PINE RIVER     LGT SNOW  16  10  79 W14G23    29.69R WCI   1
BRAINERD       LGT SNOW  16  11  80 W23G33    29.70R WCI  -2
STAPLES        LGT SNOW  14  10  85 W20       29.73R WCI  -3
LONG PRAIRIE   LGT SNOW  14  10  85 SW21      29.79R WCI  -4
LITTLE FALLS   FLURRIES  18  10  73 W21G31    29.77R WCI   1
LITCHFIELD     MIX PCPN  18  12  79 W18G26    29.87R WCI   2
BUFFALO        FLURRIES  19  11  73 W24       29.86R WCI   1
MAPLE LAKE     CLOUDY    19  13  76 W14G24    29.85R WCI   6
HUTCHINSON     CLOUDY    17  12  80 W21       29.89R WCI   0
$$
MNZ037-044-045-052-053-070700-
   East Central Minnesota

CITY           SKY/WX    TMP DP  RH WIND       PRES   REMARKS
PRINCETON      LGT SNOW  18  12  79 SW15G22   29.79R WCI   3
MORA           FLURRIES  19  12  73 W17G23    29.75R WCI   4
CAMBRIDGE      FLURRIES  19  10  68 W15G28    29.77R WCI   5
RUSH CITY      CLOUDY    19  12  73 W17G24    29.77R WCI   4
MOOSE LAKE     FLURRIES  21  14  73 SW18G26   29.63R WCI   6
HINCKLEY       FLURRIES  21  14  73 W16G23    29.72R WCI   7
CLOQUET        FLURRIES  19  12  73 SW16G22   29.59R WCI   5
MCGREGOR       CLOUDY    19  16  86 W15G21    29.64R WCI   5
$$
MNZ071>073-080-081-089-090-097-098-070700-
   Southwest Minnesota

CITY           SKY/WX    TMP DP  RH WIND       PRES   REMARKS
MONTEVIDEO     CLOUDY    14   7  73 NW17G24   29.95R WCI  -3
GRANITE FALLS  CLEAR     15   9  77 W23       29.97R WCI  -4
CANBY          CLEAR     13   7  74 NW21G28   29.98R WCI  -5
MARSHALL       CLEAR     12   5  73 W25G32    29.96R WCI  -8
REDWOOD FALLS  CLOUDY    14   5  67 W23G31    29.95R WCI  -5
OLIVIA         CLEAR     16  10  79 W21G26    29.92R WCI  -2
PIPESTONE      CLEAR     10   5  79 NW21      29.97S WCI  -9
WINDOM         CLEAR     12   7  79 W18G26    29.96R WCI  -5
WORTHINGTON    CLEAR     11   5  77 W18G26    29.99R WCI  -7
JACKSON        CLEAR     12   5  73 W24G32    29.96S WCI  -8
TRACY          CLEAR     14   8  77 W15G26    29.96R WCI  -2
SLAYTON        CLEAR     10   6  82 W30G38    29.95R WCI -12
$$
MNZ065>067-074>077-082>085-091>093-070700-
   South Central Minnesota

CITY           SKY/WX    TMP DP  RH WIND       PRES   REMARKS
MANKATO        CLEAR     15   8  73 W22G30    29.93S WCI  -3
NEW ULM        CLOUDY    14   7  73 W22G29    29.95R WCI  -4
ST JAMES       CLEAR     14   9  79 W16       29.98R WCI  -2
FAIRMONT       CLEAR     14   7  73 W18G26    29.98R WCI  -3
GLENCOE        CLOUDY    17  12  82 W14G21    29.90R WCI   3
FARIBAULT      MOCLDY    16  10  79 W15G25    29.91S WCI   1
OWATONNA       CLOUDY    16   9  73 W21G29    29.91S WCI  -2
WASECA         PTCLDY    18  12  79 W24G32    29.94S WCI   0
ALBERT LEA     MOCLDY    19  12  73 W12G22    29.94R WCI   7
$$
MNZ078>079-086>088-094>096-070700-
   Southeast Minnesota

CITY           SKY/WX    TMP DP  RH WIND       PRES   REMARKS
ROCHESTER      FLURRIES  16  11  80 W24       29.89R WCI  -2
6HR MIN TEMP:  16; 6HR MAX TEMP:  22; 6HR PCP: TRACE;

RED WING       CLOUDY    19   9  63 W20G29    29.87S WCI   4
STANTON        CLOUDY    18  10  73 W18G26    29.89R WCI   2
DODGE CENTER   FLURRIES  16   9  73 W28       29.89S WCI  -4
WINONA         FLURRIES  21  14  73 W8G17     29.92R WCI  12
AUSTIN         CLOUDY    16   9  73 W20G31    29.93R WCI  -1
PRESTON        LGT SNOW  17  12  82 W16       29.91R WCI   1
$$
ABBREVIATIONS USED IN REMARKS
   TC - TEMPERATURES IN CELSIUS
  WCI - WIND CHILL INDEX
   HX - HEAT INDEX
  VSB - VISIBILITY
$$




USA.gov is the U.S. government's official web portal to all federal, state and local government web resources and services.